Weather History for O'Neill, NE

Change the Weather History Date:

Thursday, March 27, 2014

  Actual Average Record
Temperature  
Mean Temperature 36 °F -  
Max Temperature 48 °F 57 °F 84 °F (1988)
Min Temperature 25 °F 28 °F 2 °F (1955)
Degree Days  
Heating Degree Days 28    
Moisture  
Dew Point 30 °F    
Average Humidity 80    
Maximum Humidity 90    
Minimum Humidity 70    
Precipitation  
Precipitation 0.10 in - - ()
Sea Level Pressure  
Sea Level Pressure 29.56 in    
Wind  
Wind Speed 16 mph (NW)    
Max Wind Speed 32 mph    
Max Gust Speed 40 mph    
Visibility 7 miles    
Events Snow    
Averages and records for this station are not official NWS values.
T = Trace of Precipitation, MM = Missing Value Source: NWS Daily Summary

Daily Weather History Graph

Daily Weather History Graph

Search for Another Location

Airport:

Trip Planner

Search our weather history database for the weather conditions in past years. The results will help you decide how hot, cold, wet, or windy it might be!

Date:

Astronomy

Mar. 27, 2014 Rise Set
Actual Time 7:25 AM CDT 7:55 PM CDT
Civil Twilight 6:57 AM CDT 8:23 PM CDT
Nautical Twilight 6:24 AM CDT 8:56 PM CDT
Astronomical Twilight 5:50 AM CDT 9:31 PM CDT
Moon 5:22 AM CDT (3/27) 4:40 PM CDT (3/27)
Length of Visible Light 13h 25m
Length of Day
12h 29m
Waning Crescent, 13% of the Moon is Illuminated
Mar 27
Waning Crescent
Mar 30
New
Apr 7
First Quarter
Apr 15
Full
Apr 22
Last Quarter

Hourly Weather History & Observations

Time (CDT) Temp. Windchill Dew Point Humidity Pressure Visibility Wind Dir Wind Speed Gust Speed Precip Events Conditions
12:15 AM 48.2 °F - 40.5 °F 75% 29.39 in 10.0 mi SSW 21.9 mph 27.6 mph N/A   Overcast
12:35 AM 48.2 °F - 40.6 °F 75% 29.42 in 10.0 mi SW 15.0 mph 24.2 mph N/A   Overcast
1:15 AM 48.2 °F - 41.2 °F 77% 29.41 in 10.0 mi SW 15.0 mph 20.7 mph N/A   Overcast
1:35 AM 48.2 °F - 41.4 °F 77% 29.40 in 10.0 mi SSW 13.8 mph - N/A   Overcast
1:55 AM 47.8 °F - 41.9 °F 80% 29.40 in 10.0 mi SSW 13.8 mph - N/A   Overcast
2:15 AM 47.5 °F - 42.1 °F 82% 29.40 in 10.0 mi SSW 12.7 mph 18.4 mph N/A   Overcast
2:35 AM 47.1 °F - 41.9 °F 82% 29.39 in 7.0 mi SSW 9.2 mph - N/A   Overcast
2:55 AM 46.6 °F - 41.9 °F 84% 29.39 in 7.0 mi SSW 9.2 mph - N/A   Mostly Cloudy
3:15 AM 46.6 °F - 42.1 °F 84% 29.38 in 7.0 mi SSW 10.4 mph - N/A   Scattered Clouds
3:35 AM 46.4 °F 45.2 °F 41.9 °F 84% 29.36 in 7.0 mi South 3.5 mph - N/A   Mostly Cloudy
3:55 AM 45.1 °F 42.8 °F 41.5 °F 87% 29.32 in 5.0 mi ENE 4.6 mph - N/A   Overcast
4:15 AM 45.1 °F 40.3 °F 41.9 °F 88% 29.37 in 5.0 mi SSW 9.2 mph - N/A   Overcast
4:35 AM 45.0 °F 42.6 °F 41.9 °F 89% 29.36 in 5.0 mi SSW 4.6 mph - N/A   Overcast
4:55 AM 44.8 °F 43.3 °F 41.7 °F 89% 29.36 in 5.0 mi SW 3.5 mph - N/A   Overcast
5:15 AM 42.3 °F 36.8 °F 33.8 °F 72% 29.37 in 10.0 mi NNW 9.2 mph - N/A   Overcast
5:35 AM 40.3 °F 33.9 °F 32.2 °F 73% 29.37 in 10.0 mi NW 10.4 mph - N/A   Overcast
5:55 AM 39.2 °F 33.6 °F 32.0 °F 75% 29.38 in 10.0 mi NNW 8.1 mph - N/A   Overcast
6:15 AM 38.3 °F 33.9 °F 32.0 °F 78% 29.39 in 10.0 mi NW 5.8 mph - N/A   Overcast
6:35 AM 37.9 °F 30.9 °F 32.0 °F 79% 29.39 in 10.0 mi NW 10.4 mph - N/A   Overcast
6:55 AM 37.6 °F 29.1 °F 31.1 °F 77% 29.39 in 10.0 mi NNW 13.8 mph - N/A   Overcast
7:15 AM 37.2 °F 27.3 °F 30.6 °F 77% 29.40 in 10.0 mi NW 18.4 mph - N/A   Overcast
7:35 AM 36.1 °F 26.2 °F 30.2 °F 79% 29.41 in 10.0 mi NW 17.3 mph 21.9 mph N/A   Overcast
7:55 AM 35.6 °F 25.2 °F 30.2 °F 81% 29.41 in 10.0 mi NNW 18.4 mph 25.3 mph N/A   Overcast
8:15 AM 34.7 °F 23.4 °F 30.2 °F 84% 29.41 in 10.0 mi NW 20.7 mph 26.5 mph N/A Snow Light Snow
8:35 AM 33.6 °F 21.3 °F 30.2 °F 87% 29.42 in 4.0 mi NW 23.0 mph 26.5 mph N/A Snow Light Snow
8:55 AM 33.1 °F 21.5 °F 30.2 °F 89% 29.44 in 2.0 mi NW 19.6 mph 25.3 mph N/A Snow Light Snow
9:15 AM 32.9 °F 20.4 °F 30.2 °F 90% 29.45 in 3.0 mi NW 23.0 mph 27.6 mph N/A Snow Light Snow
9:35 AM 32.4 °F 20.3 °F 29.5 °F 89% 29.46 in 1.8 mi NW 20.7 mph 33.4 mph N/A Snow Light Snow
9:55 AM 32.0 °F 19.8 °F 28.6 °F 87% 29.47 in 1.0 mi NW 20.7 mph 32.2 mph N/A Snow Light Snow
10:15 AM 31.6 °F 19.0 °F 28.6 °F 88% 29.48 in 0.5 mi NW 21.9 mph 26.5 mph N/A Snow Light Snow
10:35 AM 31.1 °F 18.3 °F 28.2 °F 89% 29.48 in 0.5 mi NW 21.9 mph - N/A Snow Snow
10:55 AM 30.6 °F 16.2 °F 27.5 °F 88% 29.49 in 0.2 mi NNW 27.6 mph 34.5 mph N/A Snow Heavy Snow
11:15 AM 30.2 °F 16.8 °F 27.3 °F 89% 29.49 in 0.2 mi NW 23.0 mph 28.8 mph N/A Snow Heavy Snow
11:35 AM 30.0 °F 16.3 °F 27.1 °F 89% 29.50 in 0.2 mi NNW 24.2 mph 35.7 mph N/A Snow Heavy Snow
11:55 AM 30.0 °F 16.3 °F 27.0 °F 88% 29.51 in 0.2 mi NNW 24.2 mph 32.2 mph N/A Snow Snow
12:15 PM 30.0 °F 15.4 °F 26.6 °F 87% 29.52 in 0.2 mi NNW 27.6 mph 34.5 mph N/A Snow Snow
12:35 PM 30.2 °F 15.7 °F 26.6 °F 86% 29.53 in 0.5 mi NNW 27.6 mph 33.4 mph N/A Snow Snow
12:55 PM 29.8 °F 14.5 °F 26.4 °F 87% 29.55 in 0.2 mi NNW 31.1 mph 40.3 mph N/A Snow Snow
1:15 PM 30.2 °F 15.4 °F 26.6 °F 86% 29.56 in 0.2 mi NNW 28.8 mph 34.5 mph N/A Snow Snow
1:35 PM 30.6 °F 15.9 °F 26.6 °F 85% 29.57 in 0.5 mi NNW 28.8 mph 39.1 mph N/A Snow Snow
1:55 PM 31.3 °F 17.7 °F 27.3 °F 85% 29.57 in 0.8 mi NW 25.3 mph 32.2 mph N/A Snow Light Snow
2:15 PM 32.0 °F 17.2 °F 27.5 °F 83% 29.57 in 0.8 mi NNW 32.2 mph 39.1 mph N/A Snow Light Snow
2:35 PM 32.0 °F 18.9 °F 27.7 °F 84% 29.58 in 1.2 mi NNW 24.2 mph 32.2 mph N/A Snow Light Snow
2:55 PM 32.5 °F 18.8 °F 27.1 °F 80% 29.60 in 2.0 mi NNW 27.6 mph 35.7 mph N/A Snow Light Snow
3:15 PM 32.9 °F 19.6 °F 26.6 °F 78% 29.61 in 4.0 mi NNW 26.5 mph 34.5 mph N/A   Haze
3:35 PM 33.8 °F 21.3 °F 26.6 °F 75% 29.62 in 7.0 mi NNW 24.2 mph 31.1 mph N/A   Overcast
3:55 PM 34.3 °F 20.8 °F 26.6 °F 73% 29.63 in 10.0 mi NNW 29.9 mph 34.5 mph 0.02 in   Mostly Cloudy
4:15 PM 34.7 °F 21.1 °F 26.6 °F 72% 29.64 in 10.0 mi NNW 31.1 mph 35.7 mph 0.03 in   Mostly Cloudy
4:35 PM 35.1 °F 22.5 °F 26.4 °F 71% 29.66 in 10.0 mi NNW 26.5 mph 33.4 mph 0.06 in   Scattered Clouds
4:55 PM 34.7 °F 21.8 °F 26.2 °F 71% 29.67 in 10.0 mi NNW 27.6 mph 32.2 mph 0.07 in   Mostly Cloudy
5:15 PM 34.3 °F 22.3 °F 25.7 °F 71% 29.69 in 10.0 mi NNW 23.0 mph 33.4 mph 0.01 in   Overcast
5:35 PM 34.2 °F 22.3 °F 25.5 °F 71% 29.70 in 10.0 mi NNW 21.9 mph 29.9 mph 0.01 in   Overcast
5:55 PM 33.8 °F 21.9 °F 25.5 °F 72% 29.70 in 10.0 mi NNW 21.9 mph 31.1 mph 0.01 in   Mostly Cloudy
6:15 PM 33.8 °F 22.2 °F 24.8 °F 70% 29.72 in 10.0 mi NNW 20.7 mph - N/A   Clear
6:35 PM 33.3 °F 22.1 °F 24.8 °F 71% 29.73 in 10.0 mi NNW 18.4 mph 23.0 mph N/A   Clear
7:15 PM 32.0 °F 20.5 °F 23.9 °F 72% 29.75 in 10.0 mi NNW 18.4 mph - N/A   Clear
7:55 PM 32.4 °F 23.5 °F 25.0 °F 74% 29.78 in 10.0 mi NW 11.5 mph - N/A   Overcast
8:15 PM 32.0 °F 23.0 °F 24.1 °F 73% 29.78 in 10.0 mi NW 11.5 mph - N/A   Scattered Clouds
8:35 PM 32.0 °F 23.6 °F 23.4 °F 70% 29.79 in 10.0 mi NW 10.4 mph - N/A   Clear
8:55 PM 30.9 °F 22.8 °F 23.4 °F 74% 29.81 in 10.0 mi NW 9.2 mph - N/A   Clear
9:15 PM 29.7 °F 22.8 °F 22.3 °F 74% 29.82 in 10.0 mi NW 6.9 mph - N/A   Clear
9:35 PM 29.1 °F 20.0 °F 22.1 °F 75% 29.83 in 10.0 mi NW 10.4 mph - N/A   Clear
9:55 PM 30.6 °F 23.1 °F 22.5 °F 72% 29.83 in 10.0 mi NW 8.1 mph - N/A   Clear
10:15 PM 29.1 °F 21.3 °F 21.9 °F 74% 29.84 in 10.0 mi NW 8.1 mph - N/A   Clear
10:35 PM 28.9 °F 21.9 °F 21.9 °F 75% 29.85 in 10.0 mi NW 6.9 mph - N/A   Clear
10:55 PM 28.4 °F 22.2 °F 21.6 °F 76% 29.85 in 10.0 mi NW 5.8 mph - N/A   Clear
11:15 PM 27.1 °F 21.8 °F 20.8 °F 77% 29.86 in 10.0 mi NW 4.6 mph - N/A   Clear
11:35 PM 25.3 °F 18.5 °F 19.4 °F 78% 29.87 in 10.0 mi NNW 5.8 mph - N/A   Scattered Clouds
11:55 PM 25.2 °F 18.3 °F 19.2 °F 78% 29.89 in 10.0 mi WNW 5.8 mph - N/A   Scattered Clouds